Home   Weather   42°12'N, 91°31'W   Past weeks
Flag for USA

Past Weather in 42°12'N, 91°31'W, USA — Yesterday and Last 2 Weeks

Now
76 °F

Partly cloudy.


Feels Like: 78 °F
Forecast: 81 / 65 °F
Wind: 10 mph from Southwest

Location: Vinton Veterans Memorial Airpark Airport

Current Time: May 24, 2019 at 10:13:50 pm

Latest Report: May 24, 2019 at 9:35 pm


Visibility: 10 mi

Pressure: 29.82 "Hg

Humidity: 69%

Dew Point: 65 °F

Location of 42°12'N, 91°31'WLocation

Past Weather in 42°12'N, 91°31'W — Graph

°F

42°12'N, 91°31'W Temperature Yesterday

Maximum temperature yesterday: 76 °F (at 3:35 pm)
Minimum temperature yesterday: 52 °F (at 5:55 am)
Average temperature yesterday: 64 °F

High & Low Weather Summary for the Past Weeks

 TemperatureHumidityPressure
High94 °F (May 16, 3:55 pm)100% (May 12, 5:35 am)30.20 "Hg (May 12, 5:35 am)
Low36 °F (May 12, 4:55 am)28% (May 13, 3:15 pm)29.48 "Hg (May 19, 2:55 am)
Average58 °F75%29.90 "Hg
* Reported May 9 9:15 pm — May 24 9:15 pm, 42°12'N, 91°31'W. Weather by CustomWeather, © 2019

Note: Actual official high and low records may vary slightly from our data, if they occured in-between our weather recording intervals... More about our weather records

Advertising

42°12'N, 91°31'W Weather History for the Previous 24 Hours

Scroll right to see more
 ConditionsComfort  
Time TempWeatherWind HumidityBarometerVisibility
9:15 pm
Fri, May 24
76 °FPartly cloudy.10 mph70%29.83 "Hg10 mi
8:35 pm77 °FPassing clouds.10 mph74%29.82 "Hg10 mi
8:15 pm77 °FScattered clouds.10 mph79%29.83 "Hg10 mi
7:55 pm78 °FScattered clouds.10 mph82%29.83 "Hg10 mi
7:35 pm78 °FScattered clouds.8 mph80%29.83 "Hg10 mi
6:55 pm81 °FSunny.13 mph74%29.83 "Hg10 mi
6:35 pm78 °FRain. Scattered clouds.13 mph77%29.83 "Hg10 mi
6:15 pm81 °FScattered clouds.9 mph73%29.83 "Hg10 mi
5:55 pm81 °FSunny.12 mph72%29.84 "Hg10 mi
5:35 pm81 °FScattered clouds.12 mph73%29.85 "Hg10 mi
5:15 pm81 °FScattered clouds.14 mph70%29.87 "Hg10 mi
4:55 pm79 °FScattered clouds.13 mph70%29.87 "Hg10 mi
4:35 pm81 °FScattered clouds.13 mph72%29.87 "Hg10 mi
4:15 pm81 °FSunny.15 mph70%29.87 "Hg10 mi
3:55 pm79 °FSunny.18 mph70%29.88 "Hg10 mi
3:35 pm78 °FSunny.14 mph73%29.89 "Hg10 mi
3:15 pm78 °FScattered clouds.13 mph73%29.89 "Hg10 mi
2:55 pm76 °FSunny.13 mph76%29.90 "Hg10 mi
2:35 pm76 °FSunny.13 mph75%29.90 "Hg10 mi
2:15 pm76 °FSunny.16 mph76%29.90 "Hg10 mi
1:55 pm75 °FSunny.16 mph78%29.89 "Hg10 mi
1:35 pm72 °FSunny.20 mph80%29.90 "Hg10 mi
1:15 pm71 °FSunny.22 mph81%29.91 "Hg10 mi
12:55 pm71 °FScattered clouds.15 mph83%29.91 "Hg10 mi
12:35 pm66 °FScattered clouds.16 mph86%29.92 "Hg10 mi
12:15 pm64 °FScattered clouds.18 mph88%29.93 "Hg10 mi
11:55 am64 °FScattered clouds.13 mph88%29.95 "Hg10 mi
11:35 am62 °FScattered clouds.12 mph88%29.93 "Hg10 mi
11:15 am64 °FSunny.15 mph85%29.96 "Hg10 mi
10:55 am64 °FSunny.16 mph85%29.94 "Hg10 mi
10:35 am61 °FSunny.13 mph89%29.93 "Hg10 mi
10:15 am61 °FSunny.14 mph89%29.93 "Hg10 mi
9:55 am61 °FSunny.13 mph95%29.95 "Hg10 mi
9:35 am58 °FLight rain. Scattered clouds.6 mph99%29.96 "Hg10 mi
9:15 am57 °FRain. Partly sunny.17 mph100%29.96 "Hg10 mi
8:55 am57 °FRain. Mostly cloudy.8 mph100%30.00 "Hg7 mi
7:55 am58 °FLight rain. Broken clouds.12 mph99%29.98 "Hg10 mi
7:35 am58 °FLight rain. Broken clouds.18 mph99%29.98 "Hg10 mi
7:15 am58 °FLight rain. More clouds than sun.10 mph100%30.01 "Hg10 mi
6:55 am56 °FLight rain. Cloudy.10 mph100%30.00 "Hg10 mi
6:35 am56 °FLight rain. Broken clouds.13 mph100%30.01 "Hg10 mi
6:15 am56 °FRain. Broken clouds.8 mph100%30.00 "Hg10 mi
5:55 am56 °FRain. Scattered clouds.13 mph100%30.01 "Hg10 mi
5:35 am56 °FPartly cloudy.10 mph100%30.00 "Hg10 mi
5:15 am56 °FLight rain. Partly cloudy.13 mph100%30.02 "Hg10 mi
4:55 am56 °FLight rain. Mostly cloudy.16 mph100%30.04 "Hg7 mi
4:35 am56 °FHeavy rain. Mostly cloudy.9 mph100%30.09 "Hg4 mi
4:15 am56 °FHeavy rain. Mostly cloudy.3 mph100%30.12 "Hg5 mi
3:55 am56 °FHeavy rain. Mostly cloudy.8 mph99%30.12 "Hg5 mi
3:35 am56 °FHeavy rain. Mostly cloudy.No wind99%30.17 "Hg2 mi
3:15 am56 °FRain. Overcast.No wind99%30.15 "Hg7 mi
2:55 am56 °FRain. Overcast.15 mph99%30.08 "Hg5 mi
2:35 am56 °FRain. Overcast.10 mph99%30.10 "Hg10 mi
2:15 am56 °FRain. Mostly cloudy.12 mph99%30.09 "Hg10 mi
1:55 am56 °FHeavy rain. Mostly cloudy.9 mph96%30.11 "Hg1 mi
1:35 am58 °FHeavy rain. Mostly cloudy.6 mph86%30.13 "Hg2 mi
1:15 am61 °FLight rain. Passing clouds.15 mph74%30.17 "Hg10 mi
12:55 am61 °FClear.13 mph75%30.03 "Hg10 mi
12:35 am61 °FClear.6 mph73%30.07 "Hg10 mi
12:15 am61 °FClear.5 mph72%30.08 "Hg10 mi
11:55 pm
Thu, May 23
61 °FClear.6 mph73%30.07 "Hg10 mi
11:35 pm61 °FClear.8 mph72%30.08 "Hg10 mi
11:15 pm61 °FClear.No wind71%30.09 "Hg10 mi
10:55 pm61 °FClear.No wind71%30.09 "Hg10 mi
10:35 pm62 °FClear.5 mph70%30.09 "Hg10 mi
10:15 pm62 °FClear.6 mph67%30.07 "Hg10 mi
Weather by CustomWeather, © 2019

See weather overview